ARIANE 40 R/B

Last updated on Mon Sep 21 2026 00:02:08 GMT+0000 (Coordinated Universal Time)

1 22830U 93061H 26263.17074594 .00000081 00000+0 45374-4 0 9995 2 22830 98.4726 328.0119 0011801 71.1199 289.1263 14.32938435721953
UTC large
Height (km)
Speed (km/s)
/
Latitude / Longitude
Inclination (degrees)
Orbital Period (minutes)
Azimuth
Elevation
Range (km)
Doppler Factor

Next 0 passes for location: London (51.5072 / 0.1276)

No passes found over London.
ARIANE 40 R/B